Location: Newark
(43.8478°N, 19.4658°E)
Time: 01:56:58
(UTC+00:00)

N. Korean satellite - Visible Passes

Search period start: 09 December 2019 00:00
Search period end: 19 December 2019 00:00
Orbit: 456 x 506 km, 97.2° (Epoch: 07 December)

Date Brightness Start Highest point End Pass type
(mag) Time Alt. Az. Time Alt. Az. Time Alt. Az.
09 Dec 9.0 03:54:45 10° NE 03:57:38 23° E 04:00:29 10° SSE visible
09 Dec 7.7 05:28:09 10° NNW 05:30:56 22° WNW 05:33:41 10° WSW visible
09 Dec 7.7 16:03:48 10° S 16:07:24 49° W 16:11:00 10° NNW visible
10 Dec 10.0 03:30:42 10° ENE 03:31:59 12° E 03:33:15 10° ESE visible
10 Dec 6.8 05:02:15 10° N 05:05:39 43° WNW 05:08:58 10° SW visible
10 Dec 6.6 15:38:15 10° SSE 15:41:58 78° ENE 15:45:40 10° N visible
11 Dec 6.5 04:36:43 10° NNE 04:40:16 84° ESE 04:43:44 10° S visible
11 Dec 9.9 16:47:52 10° SW 16:50:08 15° W 16:52:23 10° NW visible
12 Dec 8.0 04:11:28 10° NNE 04:14:47 37° E 04:18:01 10° SSE visible
12 Dec 8.8 16:21:15 10° SSW 16:24:31 30° W 16:27:49 10° NNW visible
13 Dec 9.4 03:46:41 10° NE 03:49:12 18° E 03:51:40 10° SE visible
13 Dec 7.4 05:19:36 10° NNW 05:22:37 27° WNW 05:25:34 10° SW visible
13 Dec 7.2 15:55:22 10° S 15:59:01 62° W 16:02:42 10° NNW visible
14 Dec 6.5 04:53:50 10° N 04:57:18 56° WNW 05:00:40 10° SSW visible
15 Dec 6.9 04:28:22 10° NNE 04:31:52 65° ESE 04:35:16 10° S visible
15 Dec 9.6 16:39:02 10° SW 16:41:42 19° W 16:44:22 10° NW visible
16 Dec 8.5 04:03:14 10° NNE 04:06:20 29° E 04:09:23 10° SSE visible
16 Dec 8.0 05:37:10 10° NNW 05:39:31 17° WNW 05:41:50 10° WSW visible
16 Dec 8.3 16:12:41 10° SSW 16:16:08 37° W 16:19:33 10° NNW visible
17 Dec 9.7 03:38:42 10° NE 03:40:43 15° E 03:42:43 10° SE visible
17 Dec 7.1 05:11:05 10° N 05:14:15 33° WNW 05:17:22 10° SW visible
17 Dec 6.8 15:46:58 10° S 15:50:39 80° WSW 15:54:18 10° NNW visible
18 Dec 6.3 04:45:24 10° N 04:48:53 73° WNW 04:52:18 10° SSW visible
18 Dec 10.1 16:57:29 10° WSW 16:58:53 12° W 17:00:18 10° WNW visible
